St. Johns, AZ

6:55 PM MST on October 14, 2019 (GMT -0700)
Saint Johns Industrial

Weather History for KSJN - August, 2019

Change the Weather History Date:

Wednesday, August 7, 2019

  Actual Average (WUND) Record (WUND)
Temperature  
Mean Temperature 70 °F -  
Max Temperature 84 °F - - (-1)
Min Temperature 57 °F - - (-1)
Cooling Degree Days 6    
Growing Degree Days 20 (Base 50)    
Moisture  
Dew Point 55 °F    
Average Humidity 53    
Maximum Humidity 87    
Minimum Humidity 25    
Precipitation  
Precipitation 0.12 in - - ()
Sea Level Pressure  
Sea Level Pressure 29.94 in    
Wind  
Wind Speed 7 mph (WSW)    
Max Wind Speed 15 mph    
Max Gust Speed 23 mph    
Visibility 10 miles    
Events Rain , Thunderstorm    
Averages and records for this station are not official NWS values.
T = Trace of Precipitation, MM = Missing Value Source: NWS Daily Summary

Daily Weather History Graph

Daily Weather History Graph

Search for Another Location

Airport or City:

Astronomy

Aug. 07, 2019 Rise Set
Actual Time 5:32 AM MST 7:13 PM MST
Civil Twilight 5:05 AM MST 7:40 PM MST
Nautical Twilight 4:32 AM MST 8:13 PM MST
Astronomical Twilight 3:57 AM MST 8:48 PM MST
Moon 12:49 PM MST (8/7) 11:55 PM MST (8/7)
Length of Visible Light 14h 35m
Length of Day
13h 41m
Waxing Crescent, 51% of the Moon is Illuminated
Aug 7
Waxing Crescent
Aug 15
Full
Aug 23
Last Quarter
Aug 30
New
Sep 5
First Quarter

Hourly Weather History & Observations

Time (MST) Temp. Heat Index Dew Point Humidity Pressure Visibility Wind Dir Wind Speed Gust Speed Precip Events Conditions
12:54 AM 66.0 °F - 62.1 °F 87% 29.95 in 10.0 mi SSE 4.6 mph - N/A   Overcast
1:54 AM 64.9 °F - 60.1 °F 84% 29.93 in 10.0 mi SSW 6.9 mph - N/A   Overcast
2:54 AM 64.9 °F - 60.1 °F 84% 29.92 in 10.0 mi South 8.1 mph - N/A   Partly Cloudy
3:54 AM 64.9 °F - 59.0 °F 81% 29.90 in 10.0 mi South 8.1 mph - N/A   Clear
4:54 AM 64.9 °F - 57.9 °F 78% 29.90 in 10.0 mi South 9.2 mph - N/A   Clear
5:54 AM 64.9 °F - 57.9 °F 78% 29.92 in 10.0 mi Variable 4.6 mph - N/A   Clear
6:54 AM 68.0 °F - 57.9 °F 70% 29.93 in 10.0 mi SE 4.6 mph - N/A   Overcast
7:54 AM 69.1 °F - 59.0 °F 70% 29.95 in 10.0 mi NNW 6.9 mph - N/A   Overcast
8:54 AM 72.0 °F - 60.1 °F 66% 29.94 in 10.0 mi Variable 3.5 mph - N/A   Clear
9:54 AM 77.0 °F - 57.0 °F 50% 29.94 in 10.0 mi WNW 5.8 mph - N/A   Scattered Clouds
10:54 AM 80.1 °F 80.2 °F 55.9 °F 43% 29.93 in 10.0 mi WNW 8.1 mph - N/A   Mostly Cloudy
11:54 AM 82.9 °F 82.0 °F 55.0 °F 38% 29.91 in 10.0 mi West 8.1 mph - N/A   Overcast
12:54 PM 86.0 °F 84.0 °F 53.1 °F 32% 29.88 in 10.0 mi West 15.0 mph - N/A   Partly Cloudy
1:54 PM 87.1 °F 84.9 °F 53.1 °F 31% 29.87 in 10.0 mi NW 12.7 mph 19.6 mph N/A   Partly Cloudy
2:54 PM 88.0 °F - 52.0 °F 29% 29.84 in 10.0 mi West 8.1 mph 19.6 mph N/A   Mostly Cloudy
3:54 PM 87.1 °F - 48.9 °F 27% 29.83 in 10.0 mi West 12.7 mph 23.0 mph N/A   Partly Cloudy
4:54 PM 84.9 °F - 51.1 °F 31% 29.83 in 10.0 mi WNW 9.2 mph - N/A   Scattered Clouds
5:21 PM 84.9 °F - 50.0 °F 30% 30.11 in 10.0 mi WNW 8.1 mph - N/A Thunderstorm Mostly Cloudy
5:54 PM 84.9 °F - 48.9 °F 29% 29.81 in 10.0 mi NW 12.7 mph - N/A Thunderstorm Mostly Cloudy
6:17 PM 79.0 °F - 53.1 °F 40% 30.13 in 10.0 mi SSW 12.7 mph - N/A Thunderstorm Mostly Cloudy
6:25 PM 79.0 °F - 53.1 °F 40% 30.13 in 10.0 mi SSW 12.7 mph - N/A Thunderstorm Thunderstorm
6:46 PM 77.0 °F - 57.0 °F 50% 30.13 in 10.0 mi SSW 8.1 mph - 0.00 in Rain Light Rain
6:54 PM 75.9 °F - 57.0 °F 52% 29.85 in 10.0 mi South 8.1 mph - 0.00 in   Mostly Cloudy
7:54 PM 75.0 °F - 54.0 °F 48% 29.86 in 10.0 mi SW 8.1 mph - N/A   Clear
8:54 PM 73.9 °F - 55.0 °F 52% 29.89 in 10.0 mi SW 9.2 mph - N/A   Clear
9:54 PM 72.0 °F - 55.0 °F 55% 29.89 in 10.0 mi SSW 6.9 mph - N/A   Partly Cloudy
10:54 PM 71.1 °F - 54.0 °F 55% 29.88 in 10.0 mi WSW 5.8 mph - N/A   Clear
11:54 PM 71.1 °F - 53.1 °F 53% 29.88 in 10.0 mi West 8.1 mph - N/A   Clear